This is the latest recevied weather packets stored in our database for station/object WX2NJ. If no packets are shown the sender has not sent any weather packets the latest 10 day(s).
| Time | Temp. | Humidity | Pressure | Rain* | Wind** | Luminosity | Snow |
|---|---|---|---|---|---|---|---|
| 1777981374 | 18.89° C | 67% | 1015.1 hPa | 0 mm | - | 172 W/m² | - |
| 1777981070 | 18.33° C | 68% | 1015.3 hPa | 0 mm | - | 170 W/m² | - |
| 1777980767 | 18.89° C | 68% | 1015.4 hPa | 0 mm | - | 142 W/m² | - |
| 1777980463 | 18.33° C | 69% | 1015.1 hPa | 0 mm | - | 114 W/m² | - |
| 1777980161 | 18.33° C | 69% | 1015.1 hPa | 0 mm | - | 122 W/m² | - |
| 1777979861 | 18.33° C | 70% | 1015.1 hPa | 0 mm | - | 113 W/m² | - |
| 1777979557 | 17.78° C | 70% | 1015.3 hPa | 0 mm | - | 103 W/m² | - |
| 1777979253 | 17.78° C | 70% | 1015.2 hPa | 0 mm | - | 91 W/m² | - |
| 1777978951 | 17.78° C | 71% | 1015.3 hPa | 0 mm | - | 79 W/m² | - |
| 1777978647 | 17.22° C | 71% | 1015.1 hPa | 0 mm | - | 67 W/m² | - |
| 1777978343 | 17.22° C | 72% | 1015 hPa | 0 mm | - | 60 W/m² | - |
| 1777978040 | 16.67° C | 72% | 1015 hPa | 0 mm | - | 28 W/m² | - |
| 1777977737 | 16.67° C | 71% | 1015.1 hPa | 0 mm | - | 20 W/m² | - |
| 1777977433 | 16.67° C | 70% | 1015 hPa | 0 mm | - | 15 W/m² | - |
| 1777977131 | 16.67° C | 70% | 1014.7 hPa | 0 mm | - | 11 W/m² | - |
| 1777976828 | 17.22° C | 70% | 1014.5 hPa | 0 mm | - | 9 W/m² | - |
| 1777976526 | 16.67° C | 71% | 1014.5 hPa | 0 mm | - | 7 W/m² | - |
| 1777976225 | 16.67° C | 73% | 1014.6 hPa | 0 mm | - | 5 W/m² | - |
| 1777975921 | 16.67° C | 74% | 1014.5 hPa | 0 mm | - | 2 W/m² | - |
| 1777975617 | 16.11° C | 74% | 1014.6 hPa | 0 mm | - | 1 W/m² | - |
| 1777975314 | 15.56° C | 76% | 1014.3 hPa | 0 mm | - | 0 W/m² | - |
| 1777975010 | 15.56° C | 77% | 1014.4 hPa | 0 mm | - | 0 W/m² | - |
| 1777974708 | 15° C | 79% | 1014.3 hPa | 0 mm | - | 0 W/m² | - |
| 1777974403 | 15° C | 79% | 1014.3 hPa | 0 mm | - | 0 W/m² | - |
| 1777974100 | 15° C | 79% | 1014.4 hPa | 0 mm | - | 0 W/m² | - |
* Rain latest hour (hover to see other rain measurements)
** Current wind speed in m/s (hover to see current wind gust speed)